sat.trackr.live / text

‹ back to catalog

TIANHUI 2-02B

NORAD 49072 · 2021-074B

PAYLOAD ACTIVE UNKNOWN

§ Identity

Operator
Country
PRC
Launch date
2021-08-18
Launch site
TAISC
Launch vehicle
Mass (kg)
RCS (m²)

External: N2YO · Heavens-Above · Gunter

§ Orbital elements

Epoch: 2026-05-24T10:41:59.940096Z

Period
94.94 min
Inclination
97.4809°
Eccentricity
0.0001931
Mean motion
15.16732770 rev/d
Perigee alt
514.4 km
Apogee alt
517.1 km
Semi-major
6,893.9 km
B*
7.2053e-5
RAAN
147.9819°
Arg perigee
97.4179°
Mean anomaly
262.7273°
Rev number
26,367

§ Raw data

TIANHUI 2-02B1 49072U 21074B   26144.44583264  .00001346  00000+0  72053-4 0  99932 49072  97.4809 147.9819 0001931  97.4179 262.7273 15.16732770263673

JSON: /api/v1/satellites/49072 · /tle

For live sub-satellite position, see the globe view (requires WebGL).

§ Visibility from observer

Set your observer location to see the next 7 days of passes ≥ 10°. The values pass through the URL so the page stays shareable.

No JS? Fill the form by hand. The geolocation button needs JavaScript.